#timestamp,LO_Frequency,Hit,StdDev 
1628168415.1,286047005.6,Y
1628168435.9,286047000.4,P
1628168455.7,286046999.9,N
1628168475.6,286047000.4,N
1628168495.4,286047001.1,N
1628168515.2,286046998.7,N
1628168535.1,286046998.6,N
1628168536.0,286046998.6,N
1628168555.8,286047000.4,N
1628168575.6,286047000.9,N
1628168595.5,286047000.8,N
1628168615.3,286047000.8,N
1628168635.1,286047002.7,N
1628168655.9,286046999.7,N
1628168675.7,286047000.6,N
1628168695.6,286047001.1,N
1628168715.4,286046999.9,N
1628168735.2,286047002.8,N
1628168755.1,286047000.1,N
1628168756.0,286047000.1,N
1628168775.8,286047001.0,N
1628168795.6,286047000.7,N
1628168815.5,286046998.5,N
1628168835.3,286047000.9,N
1628168855.2,286047002.8,N
1628168875.9,286047002.5,N
1628168895.7,286047002.7,N
1628168915.6,286047002.7,N
1628168935.4,286047000.4,N
1628168955.2,286046999.7,N
1628168975.1,286047000.3,N
1628168976.0,286047000.3,N
1628168995.8,286047000.3,N
1628169015.7,286047000.4,N
1628169035.5,286047000.4,N
1628169055.3,286047000.6,N
1628169075.2,286047000.1,N
1628169095.9,286046998.5,N
1628169115.7,286047000.5,N
1628169135.6,286047000.4,N
1628169155.4,286047000.3,N
1628169175.3,286047001.0,N
1628169195.1,286046999.9,N
1628169196.0,286046999.9,N
1628169215.8,286047002.6,N
1628169235.7,286047002.5,N
1628169255.5,286047001.5,N
1628169275.3,286047001.3,N
1628169295.2,286047004.0,Y
1628169315.0,286047003.6,P
1628169315.9,286047003.6,N
1628169335.8,286047001.7,N
1628169355.6,286046999.9,N
1628169375.4,286047002.3,N
1628169395.3,286047002.1,N
1628169415.1,286047001.9,N
1628169435.8,286047003.8,Y
1628169455.7,286047000.6,P
1628169475.5,286047000.9,N
1628169495.4,286047000.4,N
1628169515.2,286047002.3,Y
1628169535.0,286046999.9,P
1628169535.9,286046999.9,N
1628169555.8,286047001.1,N
1628169575.6,286047000.4,N
1628169595.5,286046998.2,Y
1628169615.3,286046998.7,P
1628169635.1,286046999.2,N
1628169655.9,286046996.8,P
1628169675.7,286046997.1,N
1628169695.5,286046998.5,N
1628169715.4,286046998.1,N
1628169735.2,286047000.3,N
1628169755.0,286047000.5,N
1628169756.0,286047000.5,N
1628169775.8,286047000.2,N
1628169795.6,286047000.2,N
1628169815.5,286047000.0,N
1628169835.3,286047000.2,N
1628169855.1,286047000.1,N
1628169875.9,286046999.7,N
1628169895.7,286047000.0,N
1628169915.5,286047000.8,N
1628169935.4,286047000.1,N
1628169955.2,286047002.6,N
1628169975.1,286047002.8,N
1628169976.0,286047002.8,N
1628169995.8,286046999.8,N
1628170015.6,286046999.7,N
1628170035.5,286047001.9,N
1628170055.3,286047001.9,N
1628170075.2,286047004.0,N
1628170095.9,286047003.4,N
1628170115.7,286047004.0,N
1628170135.6,286047002.4,N
1628170155.4,286046996.5,N
1628170175.2,286046996.5,N
1628170195.1,286046995.1,N
1628170196.0,286046995.1,N
1628170215.8,286046995.6,N
1628170235.7,286046996.4,N
1628170255.5,286046992.6,N
1628170275.3,286046993.1,N
1628170295.2,286046991.3,N
1628170315.0,286046991.5,N
1628170315.9,286046991.5,N
1628170335.7,286046988.8,N
1628170355.6,286046989.9,N
1628170375.4,286046987.3,N
1628170395.3,286046985.6,N
1628170415.1,286046986.4,N
1628170416.0,286046986.4,N
1628170435.8,286046984.6,N
1628170455.7,286046986.3,N
1628170475.5,286046982.7,N
1628170495.3,286046985.2,N
1628170515.2,286046985.2,N
1628170535.0,286046984.8,N
1628170535.9,286046984.8,N
1628170555.8,286046983.1,N
1628170575.6,286046982.5,N
1628170595.4,286046985.0,N
1628170615.3,286046986.8,N
1628170635.1,286046984.9,N
1628170655.8,286046983.1,Y
1628170675.7,286046992.1,P
1628170695.5,286046996.0,N
1628170715.4,286046995.9,N
1628170735.2,286046995.6,N
1628170755.0,286046996.2,N
1628170755.9,286046996.2,N
1628170775.8,286046995.4,N
1628170795.6,286046996.3,N
1628170815.5,286046992.1,Y
1628170835.3,286046998.3,P
1628170855.1,286047000.5,N
1628170875.9,286047001.1,N
1628170895.7,286047000.8,N
1628170915.5,286047000.5,N
1628170935.4,286047000.1,N
1628170955.2,286046999.8,N
1628170975.1,286047000.1,N
1628170976.0,286047000.1,N
1628170995.8,286047001.9,N
1628171015.6,286047001.5,N
1628171035.5,286047000.4,N
1628171055.3,286046999.9,N
1628171075.1,286047000.3,N
1628171095.9,286047000.3,N
1628171115.7,286047000.5,N
1628171135.6,286046999.8,N
1628171155.4,286047002.8,N
1628171175.2,286047011.9,Y
1628171195.1,286046999.8,P
1628171196.0,286046999.8,N
1628171215.8,286047002.8,P
1628171235.6,286047002.4,N
1628171255.5,286047002.3,N
1628171275.3,286047000.1,N
1628171295.2,286047002.2,N
1628171315.9,286047002.8,N
1628171335.7,286047000.1,N
1628171355.6,286047001.2,N
1628171375.4,286046999.1,N
1628171395.2,286047001.2,N
1628171415.1,286047000.0,N
1628171416.0,286047000.0,N
1628171435.8,286047000.6,N
1628171455.7,286047002.4,N
1628171475.5,286047002.7,N
1628171495.3,286047000.0,N
1628171515.2,286047001.0,N
1628171535.0,286047001.0,N
1628171535.9,286047001.0,N
1628171555.7,286047000.9,N
1628171575.6,286046998.5,N
1628171595.4,286047000.3,N
1628171615.3,286046999.9,N
1628171635.1,286047002.5,N
1628171636.0,286047002.5,N
1628171655.8,286047002.3,N
1628171675.7,286047001.5,N
1628171695.5,286047004.4,Y
1628171715.4,286047002.3,P
1628171735.2,286047001.8,N
1628171755.0,286047004.4,P
1628171755.9,286047004.4,Y
1628171775.8,286047002.3,P
1628171795.6,286047003.9,P
1628171815.4,286047004.0,P
1628171835.3,286047003.8,Y
1628171855.1,286047000.1,P
1628171875.9,286046999.7,N
1628171895.7,286046999.7,N
1628171915.5,286047002.3,N
1628171935.4,286047001.3,N
1628171955.2,286047001.9,N
1628171975.0,286047003.6,N
1628171975.9,286047003.6,N
1628171995.8,286047003.9,N
